TimeEDT,TemperatureF,Dew PointF,Humidity,Sea Level PressureIn,VisibilityMPH,Wind Direction,Wind SpeedMPH,Gust SpeedMPH,PrecipitationIn,Events,Conditions,WindDirDegrees,DateUTC
12:15 AM,70.7,66.9,88,30.04,10.0,NNW,3.5,-,N/A,,Mostly Cloudy,330,2012-10-08 04:15:00
12:35 AM,69.8,66.9,91,30.03,10.0,North,4.6,-,N/A,,Scattered Clouds,350,2012-10-08 04:35:00
12:55 AM,69.1,66.7,92,30.02,10.0,North,3.5,-,N/A,,Scattered Clouds,360,2012-10-08 04:55:00
1:15 AM,68.2,67.6,98,30.03,10.0,North,3.5,-,N/A,,Clear,350,2012-10-08 05:15:00
1:35 AM,68.2,67.8,99,30.03,10.0,North,4.6,-,N/A,,Mostly Cloudy,360,2012-10-08 05:35:00
1:55 AM,68.0,66.7,96,30.03,10.0,North,4.6,-,N/A,,Mostly Cloudy,350,2012-10-08 05:55:00
2:15 AM,67.6,66.9,98,30.03,10.0,North,3.5,-,N/A,,Mostly Cloudy,360,2012-10-08 06:15:00
2:35 AM,67.5,66.4,96,30.02,10.0,North,4.6,-,N/A,,Overcast,10,2012-10-08 06:35:00
2:55 AM,67.1,65.8,96,30.01,10.0,NE,4.6,-,N/A,,Mostly Cloudy,40,2012-10-08 06:55:00
3:15 AM,67.1,65.1,93,30.00,10.0,NNE,4.6,-,N/A,,Scattered Clouds,30,2012-10-08 07:15:00
3:35 AM,66.2,65.5,98,30.00,10.0,North,5.8,-,N/A,,Clear,360,2012-10-08 07:35:00
3:55 AM,65.7,65.8,100,30.00,10.0,North,5.8,-,N/A,,Scattered Clouds,360,2012-10-08 07:55:00
4:15 AM,65.3,65.5,100,30.00,10.0,North,4.6,-,N/A,,Scattered Clouds,350,2012-10-08 08:15:00
4:35 AM,64.9,65.1,100,30.00,10.0,North,5.8,-,N/A,,Scattered Clouds,350,2012-10-08 08:35:00
4:55 AM,64.8,64.8,100,30.00,10.0,North,4.6,-,N/A,,Mostly Cloudy,350,2012-10-08 08:55:00
5:15 AM,64.6,64.6,100,30.01,10.0,North,3.5,-,N/A,,Mostly Cloudy,350,2012-10-08 09:15:00
5:35 AM,64.2,64.4,100,30.02,10.0,North,3.5,-,N/A,,Mostly Cloudy,350,2012-10-08 09:35:00
5:55 AM,63.9,64.0,100,30.02,10.0,Calm,Calm,-,N/A,,Mostly Cloudy,0,2012-10-08 09:55:00
6:15 AM,63.5,63.7,100,30.02,10.0,North,3.5,-,N/A,,Overcast,360,2012-10-08 10:15:00
6:35 AM,63.5,63.5,100,30.02,10.0,North,3.5,-,N/A,,Overcast,10,2012-10-08 10:35:00
6:55 AM,63.7,63.9,100,30.02,10.0,NNE,3.5,-,N/A,,Overcast,30,2012-10-08 10:55:00
7:15 AM,64.2,-9999,N/A,30.04,10.0,NNW,4.6,-,N/A,,Overcast,340,2012-10-08 11:15:00
7:35 AM,64.0,-9999,N/A,30.04,10.0,North,3.5,-,N/A,,Overcast,10,2012-10-08 11:35:00
8:15 AM,64.6,-9999,N/A,30.04,10.0,North,5.8,-,N/A,,Overcast,10,2012-10-08 12:15:00
8:35 AM,65.1,-9999,N/A,30.05,10.0,North,3.5,-,N/A,,Overcast,10,2012-10-08 12:35:00
8:55 AM,65.5,-9999,N/A,30.06,10.0,NE,4.6,-,N/A,,Overcast,50,2012-10-08 12:55:00
9:15 AM,66.0,-9999,N/A,30.06,10.0,NNE,5.8,-,N/A,,Overcast,30,2012-10-08 13:15:00
9:35 AM,66.0,-9999,N/A,30.07,10.0,NE,4.6,-,N/A,,Overcast,40,2012-10-08 13:35:00
9:55 AM,66.0,-9999,N/A,30.07,10.0,ENE,4.6,-,N/A,,Overcast,60,2012-10-08 13:55:00
10:15 AM,65.7,-9999,N/A,30.07,10.0,ENE,6.9,-,N/A,,Overcast,60,2012-10-08 14:15:00
10:35 AM,65.7,-9999,N/A,30.07,5.0,ENE,5.8,-,N/A,Rain,Light Rain,60,2012-10-08 14:35:00
10:55 AM,65.5,-9999,N/A,30.08,5.0,ENE,3.5,-,N/A,Rain,Light Rain,60,2012-10-08 14:55:00
11:15 AM,65.3,-9999,N/A,30.09,5.0,NNE,5.8,-,N/A,,Haze,20,2012-10-08 15:15:00
11:35 AM,65.3,-9999,N/A,30.09,5.0,North,4.6,-,N/A,,Haze,10,2012-10-08 15:35:00
11:55 AM,65.3,-9999,N/A,30.09,5.0,NNE,4.6,-,N/A,,Haze,20,2012-10-08 15:55:00
12:15 PM,65.3,-9999,N/A,30.08,5.0,North,5.8,-,N/A,,Haze,10,2012-10-08 16:15:00
12:35 PM,65.3,-9999,N/A,30.08,5.0,North,4.6,-,N/A,,Haze,10,2012-10-08 16:35:00
12:55 PM,65.3,-9999,N/A,30.08,7.0,North,8.1,-,N/A,,Overcast,350,2012-10-08 16:55:00
1:15 PM,64.9,-9999,N/A,30.07,7.0,North,5.8,-,N/A,,Overcast,350,2012-10-08 17:15:00
1:35 PM,64.4,-9999,N/A,30.06,4.0,North,6.9,-,N/A,Rain,Light Rain,350,2012-10-08 17:35:00
1:55 PM,63.3,-9999,N/A,30.06,4.0,North,5.8,-,N/A,Rain,Light Rain,360,2012-10-08 17:55:00
2:15 PM,63.9,-9999,N/A,30.05,5.0,NNE,4.6,-,N/A,Rain,Light Rain,30,2012-10-08 18:15:00
2:35 PM,64.8,-9999,N/A,30.04,7.0,North,6.9,-,N/A,,Overcast,360,2012-10-08 18:35:00
2:55 PM,64.4,-9999,N/A,30.04,7.0,NNE,4.6,-,N/A,,Overcast,20,2012-10-08 18:55:00
3:15 PM,64.8,-9999,N/A,30.04,7.0,NE,5.8,-,N/A,,Overcast,50,2012-10-08 19:15:00
3:35 PM,64.9,-9999,N/A,30.04,7.0,North,5.8,-,N/A,,Overcast,10,2012-10-08 19:35:00
3:55 PM,65.1,-9999,N/A,30.03,10.0,NNE,6.9,-,N/A,,Overcast,30,2012-10-08 19:55:00
4:15 PM,65.7,66.0,100,30.02,10.0,NE,6.9,-,N/A,,Overcast,40,2012-10-08 20:15:00
4:35 PM,66.0,65.8,99,30.02,10.0,North,6.9,-,N/A,,Overcast,10,2012-10-08 20:35:00
4:55 PM,66.0,66.0,100,30.03,10.0,NE,4.6,-,N/A,,Overcast,40,2012-10-08 20:55:00
5:15 PM,65.7,65.7,100,30.04,10.0,NNE,3.5,-,N/A,,Overcast,30,2012-10-08 21:15:00
5:35 PM,66.0,66.0,100,30.04,10.0,NNE,5.8,-,N/A,,Overcast,20,2012-10-08 21:35:00
5:55 PM,66.0,66.0,100,30.04,10.0,North,8.1,-,N/A,,Overcast,10,2012-10-08 21:55:00
6:15 PM,-9999,-9999,N/A,30.05,10.0,North,5.8,-,N/A,,Overcast,10,2012-10-08 22:15:00
6:55 PM,64.0,-9999,N/A,30.06,10.0,NE,4.6,-,N/A,,Overcast,50,2012-10-08 22:55:00
7:15 PM,63.5,-9999,N/A,30.06,10.0,NE,4.6,-,N/A,,Overcast,50,2012-10-08 23:15:00
7:35 PM,63.1,-9999,N/A,30.06,10.0,ENE,4.6,-,N/A,,Mostly Cloudy,60,2012-10-08 23:35:00
7:55 PM,62.4,-9999,N/A,30.06,10.0,ENE,5.8,-,N/A,,Scattered Clouds,60,2012-10-08 23:55:00
8:15 PM,62.1,-9999,N/A,30.07,10.0,ENE,5.8,-,N/A,,Clear,60,2012-10-09 00:15:00
8:35 PM,61.5,-9999,N/A,30.07,10.0,NE,5.8,-,N/A,,Clear,50,2012-10-09 00:35:00
8:55 PM,61.2,-9999,N/A,30.08,10.0,NE,5.8,-,N/A,,Clear,50,2012-10-09 00:55:00
9:15 PM,60.8,-9999,N/A,30.09,10.0,NE,4.6,-,N/A,,Clear,50,2012-10-09 01:15:00
9:35 PM,60.3,-9999,N/A,30.10,10.0,NE,4.6,-,N/A,,Clear,50,2012-10-09 01:35:00
9:55 PM,60.1,-9999,N/A,30.10,10.0,NE,4.6,-,N/A,,Scattered Clouds,40,2012-10-09 01:55:00
10:15 PM,59.9,-9999,N/A,30.11,10.0,NE,3.5,-,N/A,,Scattered Clouds,40,2012-10-09 02:15:00
10:35 PM,59.9,-9999,N/A,30.11,10.0,NNE,4.6,-,N/A,,Mostly Cloudy,30,2012-10-09 02:35:00
10:55 PM,59.9,-9999,N/A,30.11,10.0,NNE,3.5,-,N/A,,Overcast,30,2012-10-09 02:55:00